Location: Branche des Alpilles
(43.6087°N, 4.6976°E)
Time: 10:53:26
(UTC+00:00)

SL-8 Rocket - Pass Details

Date: 30 November 2020
Orbit: 958 x 990 km, 82.9° (Epoch: 26 January)

Event Time Altitude Azimuth Distance (km) Brightness Sun altitude
Rises 16:49:09 0° 355° (N) 3,678 6.8 -7.8°
Reaches altitude 10° 16:51:42 10° 358° (N) 2,731 6.1 -8.3°
Maximum altitude 16:57:54 62° 79° (E) 1,099 4.0 -9.3°
Drops below altitude 10° 17:04:06 10° 160° (SSE) 2,734 6.4 -10.4°
Sets 17:06:39 0° 164° (SSE) 3,681 7.1 -10.8°
